Location: Unspecified
(52.1384°N, 8.6525°W)
Time: 11:40:58
(UTC+00:00)

XW-2F - Pass Details

Date: 22 January 2021
Orbit: 500 x 519 km, 97.5° (Epoch: 24 February)

Event Time Altitude Azimuth Distance (km) Brightness Sun altitude
Rises 06:04:17 0° 23° (NNE) 2,660 ? -21.7°
Reaches altitude 10° 06:06:40 10° 36° (NE) 1,767 ? -21.4°
Maximum altitude 06:09:53 26° 94° (E) 1,069 ? -20.9°
Drops below altitude 10° 06:13:05 10° 152° (SSE) 1,754 ? -20.4°
Sets 06:15:26 0° 165° (SSE) 2,636 ? -20.0°
